Home > Weather > Bijar > Past weeks

Flag for Iran Past Weather in Bijar, Iran — Yesterday and Last 2 Weeks

Now
97 °F

Sunny.


Feels Like: 92 °F
Forecast: 65 / 101 °F
Wind: 7 mph from South

Location: Sanandaj Airport

Current Time: Jun 30, 2016 at 2:56:10 PM

Latest Report: Jun 30, 2016 at 2:30 PM


Visibility: 10 mi

Pressure: 29.95 "Hg (24.20 "Hg at 1927m altitude)

Humidity: 9%

Dew Point: 28 °F

Location of BijarLocation

Past Weather in Bijar — Graph

°F

Bijar Temperature Yesterday

Maximum temperature yesterday: 99 °F (at 2:30 PM)
Minimum temperature yesterday: 63 °F (at 7:00 AM)
Average temperature yesterday: 82 °F

High & Low Weather Summary for the Past Weeks

 TemperatureHumidityPressure
High99 °F (Jun 21, 5:30 PM)56% (Jun 26, 6:30 AM)30.07 "Hg (Jun 26, 6:30 AM)
Low52 °F (Jun 16, 6:30 AM)6% (Jun 29, 4:30 PM)29.71 "Hg (Jun 16, 2:30 PM)
Average81 °F23%29.92 "Hg
* Reported Jun 15 1:30 PM — Jun 30 1:30 PM, Bijar, Weather by CustomWeather, © 2016

Note: Actual official high and low records may vary slightly from our data, if they occured in-between our weather recording intervals... More about our weather records

Advertising

Bijar Weather History for the Previous 24 Hours

Scroll right to see more
 ConditionsComfort  
Time TempWeatherWind HumidityBarometerVisibility
1:30 PM
Thu, Jun 30
95 °FSunny.9 mph9%29.98 "Hg10 mi
1:00 PM95 °FSunny.9 mph9%29.98 "Hg10 mi
12:30 PM93 °FSunny.7 mph10%29.98 "Hg10 mi
12:00 PM93 °FSunny.2 mph11%30.01 "Hg10 mi
11:30 AM88 °FSunny.5 mph13%30.01 "Hg10 mi
11:00 AM86 °FSunny.5 mph14%30.01 "Hg10 mi
10:30 AM84 °FSunny.No wind16%30.04 "Hg10 mi
10:00 AM82 °FSunny.No wind17%30.04 "Hg10 mi
9:30 AM79 °FSunny.No wind20%30.04 "Hg10 mi
9:00 AM75 °FSmoke.2 mph25%30.04 "HgN/A
8:30 AM70 °FSunny.No wind33%30.04 "Hg10 mi
7:30 AM61 °FClear.No wind42%30.01 "Hg10 mi
6:24 AM59 °FClear.No wind45%30.01 "Hg10 mi
5:23 AM61 °FClear.2 mph45%30.01 "Hg10 mi
4:30 AM63 °FClear.2 mph37%29.98 "Hg10 mi
3:22 AM66 °FClear.5 mph35%29.98 "Hg10 mi
2:30 AM68 °FClear.5 mph35%29.98 "Hg10 mi
1:30 AM68 °FClear.5 mph33%29.98 "Hg10 mi
12:21 AM72 °FClear.No wind29%29.98 "Hg10 mi
11:21 PM
Wed, Jun 29
73 °FClear.No wind27%29.98 "Hg10 mi
10:30 PM81 °FClear.No wind18%29.95 "Hg10 mi
9:21 PM84 °FPassing clouds.5 mph14%29.95 "HgN/A
8:23 PM88 °FPassing clouds.7 mph13%29.92 "HgN/A
7:21 PM93 °FPassing clouds.9 mph10%29.92 "HgN/A
6:25 PM95 °FPassing clouds.12 mph9%29.89 "HgN/A
5:30 PM97 °FPassing clouds.12 mph7%29.89 "HgN/A
4:30 PM99 °FPassing clouds.14 mph6%29.89 "HgN/A
3:30 PM99 °FPassing clouds.16 mph7%29.89 "HgN/A
2:30 PM99 °FPassing clouds.18 mph8%29.92 "HgN/A
Weather by CustomWeather, © 2016

See weather overviewHow to use our weather pages